This demonstration page uses our WeatherBlox Daily Observations layout. Learn more.

Left ArrowRight Arrow

Hourly Observations for November 27, 2022

Temp ( °F °C ) Dew Point ( °F °C ) Humidity (%) Winds ( mph kmh ) Pressure ( in mb ) Visibility ( mi km ) Precip ( " mm )
12:53 am 00:53 Cloudy with Light Rain 43 6.1 40 4.4 89 89 NNW 17 28 29.65 1004 10 16 0.01 0.25
1:53 am 01:53 Cloudy with Light Rain 44 6.7 39 3.9 82 82 N 18 30 29.66 1004 10 16 0.01 0.25
2:53 am 02:53 Cloudy 44 6.7 38 3.3 79 79 N 20 31 29.69 1005 10 16 0.01 0.13
3:53 am 03:53 Cloudy 44 6.7 37 2.8 76 76 N 14 22 29.72 1006 10 16 0.00 0.00
4:53 am 04:53 Cloudy 42 5.6 36 2.2 79 79 NNW 18 30 29.77 1008 10 16 0.00 0.00
5:53 am 05:53 Cloudy 42 5.6 34 1.1 73 73 NNW 16 26 29.79 1009 10 16 0.00 0.00
6:53 am 06:53 Mostly Cloudy 37 2.8 31 -0.6 78 78 NNW 21 33 29.83 1010 10 16 0.00 0.00
7:53 am 07:53 Mostly Cloudy 37 2.8 30 -1.1 75 75 NNW 18 30 29.85 1011 10 16 0.00 0.00
8:53 am 08:53 Mostly Cloudy 38 3.3 30 -1.1 73 73 NNW 23 37 29.90 1013 10 16 0.00 0.00
9:53 am 09:53 Mostly Cloudy 39 3.9 31 -0.6 72 72 NNW 17 28 29.92 1013 10 16 0.00 0.00
10:53 am 10:53 Partly Cloudy 42 5.6 31 -0.6 64 64 N 18 30 29.93 1013 10 16 0.00 0.00
11:53 am 11:53 Partly Cloudy 45 7.2 32 0 60 60 NNW 17 28 29.92 1013 10 16 0.00 0.00
12:53 pm 12:53 Partly Cloudy 47 8.3 32 0 56 56 NNW 18 30 29.91 1013 10 16 0.00 0.00
1:53 pm 13:53 Partly Cloudy 49 9.4 31 -0.6 50 50 N 14 22 29.90 1012 10 16 0.00 0.00
2:53 pm 14:53 Mostly Cloudy 48 8.9 30 -1.1 49 49 NNW 17 28 29.89 1012 10 16 0.00 0.00
3:53 pm 15:53 Mostly Cloudy 47 8.3 27 -2.8 45 45 NNW 13 20 29.91 1013 10 16 0.00 0.00
4:53 pm 16:53 Mostly Cloudy 45 7.2 27 -2.8 49 49 NNW 10 17 29.92 1013 10 16 0.00 0.00
5:53 pm 17:53 Mostly Cloudy 42 5.6 27 -2.8 55 55 NNW 6 9 29.93 1014 10 16 0.00 0.00
6:53 pm 18:53 Clear 39 3.9 27 -2.8 62 62 NW 3 6 29.93 1014 10 16 0.00 0.00
7:53 pm 19:53 Clear 33 0.6 27 -2.8 78 78 SSW 3 6 29.94 1014 10 16 0.00 0.00
8:53 pm 20:53 Clear 30 -1.1 26 -3.3 85 85 WSW 5 7 29.96 1014 10 16 0.00 0.00
9:53 pm 21:53 Clear 28 -2.2 24 -4.4 85 85 S 6 9 29.96 1014 10 16 0.00 0.00
10:53 pm 22:53 Clear 30 -1.1 26 -3.3 85 85 S 5 7 29.95 1014 10 16 0.00 0.00
11:53 pm 23:53 Clear 31 -0.6 26 -3.3 82 82 S 3 6 29.93 1014 10 16 0.00 0.00

Powered by AerisWeather